This is the latest recevied weather packets stored in our database for station/object VE3TEJ. If no packets are shown the sender has not sent any weather packets the latest 10 day(s).
| Time | Temp. | Humidity | Pressure | Rain* | Wind** | Luminosity | Snow |
|---|---|---|---|---|---|---|---|
| 1777316078 | 21.11° C | 39% | 1017 hPa | 0 mm | - | - | - |
| 1777315776 | 21.11° C | 40% | 1017.2 hPa | 0 mm | - | - | - |
| 1777315477 | 21.11° C | 39% | 1017.3 hPa | 0 mm | - | - | - |
| 1777315177 | 20.56° C | 40% | 1017.6 hPa | 0 mm | - | - | - |
| 1777314877 | 20.56° C | 39% | 1017.7 hPa | 0 mm | - | - | - |
| 1777314577 | 21.11° C | 38% | 1017.9 hPa | 0 mm | - | - | - |
| 1777314278 | 21.67° C | 38% | 1017.9 hPa | 0 mm | - | - | - |
| 1777313977 | 21.11° C | 42% | 1017.9 hPa | 0 mm | - | - | - |
| 1777313678 | 20.56° C | 40% | 1017.9 hPa | 0 mm | - | - | - |
| 1777313376 | 20.56° C | 42% | 1018.1 hPa | 0 mm | - | - | - |
| 1777313077 | 20.56° C | 40% | 1018.2 hPa | 0 mm | - | - | - |
| 1777312777 | 20.56° C | 40% | 1018.1 hPa | 0 mm | - | - | - |
| 1777312476 | 20.56° C | 38% | 1018.1 hPa | 0 mm | - | - | - |
| 1777312177 | 20.56° C | 38% | 1018.2 hPa | 0 mm | - | - | - |
| 1777311878 | 20.56° C | 38% | 1018.4 hPa | 0 mm | - | - | - |
| 1777311578 | 20.56° C | 40% | 1018.2 hPa | 0 mm | - | - | - |
| 1777311277 | 20° C | 40% | 1018.5 hPa | 0 mm | - | - | - |
| 1777310977 | 20.56° C | 42% | 1018.4 hPa | 0 mm | - | - | - |
| 1777310678 | 20° C | 42% | 1018.5 hPa | 0 mm | - | - | - |
| 1777310376 | 20.56° C | 43% | 1018.6 hPa | 0 mm | - | - | - |
| 1777310077 | 20° C | 43% | 1018.6 hPa | 0 mm | - | - | - |
| 1777309777 | 20° C | 45% | 1018.7 hPa | 0 mm | - | - | - |
| 1777309478 | 19.44° C | 43% | 1018.8 hPa | 0 mm | - | - | - |
| 1777309176 | 19.44° C | 42% | 1018.9 hPa | 0 mm | - | - | - |
| 1777308877 | 20° C | 41% | 1019.1 hPa | 0 mm | - | - | - |
* Rain latest hour (hover to see other rain measurements)
** Current wind speed in m/s (hover to see current wind gust speed)